SCP
0 0 1 1 0 0 0 0 0 0 0 0 0 0 0 0 0 0 0 0 0 0 0 0 0 0 0 0 0 0 0 0 0 0 0 0 0 0 0 0 0 0 0
0 0 1 1 0 0 0 0 0 0 0 0 0 0 0 0 0 0 0 0 0 0 0 0 0 0 0 0 0 0 0 0 0 0 0 0 0 0 0 0 0 0 0
0 0 1 1 0 0 0 0 0 0 0 0 0 0 0 0 0 0 0 0 0 0 0 0 0 0 0 0 0 0 0 0 0 0 0 0 0 0 0 0 0 0 0
0 0 0 1 0 0 0 0 0 0 0 0 0 0 0 0 0 0 0 0 0 0 0 0 0 0 0 0 0 0 0 0 0 0 0 0 0 0 0 0 0 0 0
0 0 0 0 0 0 0 0 0 0 0 0 0 0 0 0 0 0 0 0 0 0 0 0 0 0 0 0 0 0 0 0 0 0 0 0 0 0 0 0 0 0 0
0 0 0 0 0 0 0 0 0 0 0 0 0 0 0 0 0 0 0 0 0 0 0 0 0 0 0 0 0 0 0 0 0 0 0 0 0 0 0 0 0 0 0
0 0 0 0 0 0 0 0 0 0 0 0 0 0 0 0 0 0 0 0 0 0 0 0 0 0 0 0 0 0 0 0 0 0 0 0 0 0 0 0 0 0 0
0 0 0 0 0 0 0 0 0 0 0 0 0 0 0 0 0 0 0 0 0 0 0 0 0 0 0 0 0 0 0 0 0 0 0 0 0 0 0 0 0 0 0
0 0 0 0 0 0 0 0 0 0 0 0 0 0 0 0 0 0 0 0 0 0 0 0 0 0 0 0 0 0 0 0 0 0 0 0 0 0 0 0 0 0 0
0 0 0 0 0 0 0 0 0 0 0 0 0 0 0 0 0 0 0 0 0 0 0 0 0 0 0 0 0 0 0 0 0 0 0 0 0 0 0 0 0 0 0
0 0 0 0 0 0 0 0 0 0 0 0 0 0 0 0 0 0 0 0 0 0 0 0 0 0 0 0 0 0 0 0 0 0 0 0 0 0 0 0 0 0 0
0 0 0 0 0 0 0 0 0 0 0 0 0 0 0 0 0 0 0 0 0 0 0 0 0 0 0 0 0 0 0 0 0 0 0 0 0 0 0 0 0 0 0
0 0 0 0 0 0 0 0 0 0 0 0 0 0 0 0 0 0 0 0 0 0 0 0 0 0 0 0 0 0 0 0 0 0 0 0 0 0 0 0 0 0 0
0 0 0 0 0 0 0 0 0 0 0 0 0 0 0 0 0 0 0 0 0 0 0 0 0 0 0 0 0 0 0 0 0 0 0 0 0 0 0 0 0 0 0
0 0 0 0 0 0 0 0 0 0 0 0 0 0 0 0 0 0 0 0 0 0 0 0 0 0 0 0 0 0 0 0 0 0 0 0 0 0 0 0 0 0 0
0 0 0 0 0 0 0 0 0 0 0 0 0 0 0 0 0 0 0 0 0 0 0 0 0 0 0 0 0 0 0 0 0 0 0 0 0 0 0 0 0 0 0
0 0 0 0 0 0 0 0 0 0 0 0 0 0 0 0 0 0 0 0 0 0 0 0 0 0 0 0 0 0 0 0 0 0 0 0 0 0 0 0 0 0 0
0 0 0 0 0 0 0 0 0 0 0 0 0 0 0 0 0 0 0 0 0 0 0 0 0 0 0 0 0 0 0 0 0 0 0 0 0 0 0 0 0 0 0
0 0 0 1 1 1 0 0 0 0 0 0 0 0 0 0 0 0 0 0 0 0 0 0 0 0 0 0 0 0 0 0 0 0 0 0 0 0 0 0 0 0 0
0 0 0 1 1 1 1 0 0 0 0 0 0 0 0 0 0 0 0 0 0 0 0 0 0 0 0 0 0 0 0 0 0 0 0 0 0 0 0 0 0 0 0
0 1 1 1 1 1 1 1 0 0 0 0 0 0 0 0 0 0 0 0 0 0 0 0 0 0 0 0 0 0 0 0 0 0 0 0 0 0 0 0 0 0 0
1 1 1 1 1 1 1 1 1 1 0 0 0 0 0 0 0 0 0 0 0 0 0 0 0 0 0 0 0 0 0 0 0 0 0 0 0 0 0 0 0 0 0
1 1 1 1 1 1 1 1 1 1 1 0 0 0 0 0 0 0 0 0 0 0 0 0 0 0 0 0 0 0 0 0 0 0 0 0 0 0 0 0 0 0 0
1 1 1 1 1 1 1 1 1 1 1 1 1 0 0 0 0 0 0 0 0 0 0 0 0 0 0 0 0 0 0 0 0 0 0 0 0 0 0 0 0 0 0
0 1 1 1 1 1 1 1 1 1 1 1 1 1 0 0 0 0 0 0 0 0 0 0 0 0 0 0 0 0 0 0 0 0 0 0 0 0 0 0 0 0 0
0 1 1 1 1 1 1 1 1 1 1 1 1 1 0 0 0 0 0 0 0 0 0 0 0 0 0 0 0 0 0 0 0 0 0 0 0 0 0 0 0 0 0
Wind_Speed
8 11 12 8 8 7 7 8 8 8 9 8 8 8 8 8 8 9 9 8 9 9 9 10 9 10 9 10 10 10 10 10 9 9 9 8 8 7 7 7 7 8 11
10 12 12 8 8 8 7 8 8 8 8 8 8 9 8 8 8 8 8 8 8 8 9 9 9 9 9 9 9 10 10 10 9 8 8 8 9 8 7 5 3 7 10
11 12 12 9 9 8 8 8 8 8 8 8 8 8 8 7 7 8 8 8 8 8 8 9 9 9 9 9 9 9 9 8 8 7 6 5 9 9 7 7 7 8 9
11 11 11 10 9 9 8 8 8 8 8 8 7 8 7 7 7 7 8 8 8 8 8 8 9 9 8 8 8 8 8 8 7 5 4 4 7 10 8 7 7 7 8
11 11 13 10 9 9 8 8 7 7 7 7 7 7 7 7 7 7 7 8 8 7 8 8 9 9 8 8 8 8 8 7 5 4 3 4 5 9 7 7 7 7 7
11 11 13 9 9 9 8 7 7 7 7 7 6 6 6 6 7 7 7 7 7 7 8 9 9 9 8 8 8 7 7 5 5 4 4 4 5 9 7 6 7 7 6
10 10 13 9 9 8 7 7 7 6 6 6 6 6 6 6 6 6 6 7 6 6 7 8 8 8 8 7 7 6 5 3 2 3 3 4 6 8 6 6 6 6 6
9 10 12 11 8 7 7 6 6 6 6 6 6 5 6 6 5 6 6 6 6 7 7 8 8 8 7 7 6 5 4 3 3 3 3 4 7 6 6 5 5 5 6
8 9 10 11 10 8 6 6 6 6 6 6 6 5 5 5 5 5 5 5 6 6 7 7 7 7 6 6 5 5 3 2 2 2 3 4 7 6 5 5 5 5 5
8 8 8 8 8 8 8 7 6 6 5 5 5 5 4 4 5 5 5 6 6 6 6 6 6 6 6 5 5 3 3 5 2 2 3 6 6 4 4 5 5 5 5
8 7 7 7 7 6 7 8 7 6 5 5 5 5 4 3 4 5 7 6 6 6 6 6 5 5 5 6 5 3 5 2 2 2 3 7 5 4 4 4 4 5 6
9 8 6 6 6 6 5 5 4 4 4 3 3 3 3 2 2 3 8 6 6 6 6 5 4 5 5 4 6 6 2 1 1 2 4 6 4 3 3 3 4 4 6
9 8 7 6 5 5 4 4 2 2 3 3 3 2 2 2 2 3 3 5 5 5 3 5 5 2 2 2 1 1 1 1 1 1 5 6 4 3 3 4 4 4 4
8 8 7 7 6 5 4 3 3 2 2 2 3 2 2 1 2 2 1 2 2 2 2 1 1 3 3 2 1 1 1 1 1 1 4 6 3 2 3 3 4 4 4
7 8 7 6 6 5 4 3 3 2 2 3 2 2 1 2 2 2 2 1 1 2 2 1 2 2 2 1 1 1 2 2 1 1 3 6 3 2 2 3 3 4 4
7 7 7 7 6 5 4 3 3 3 2 2 2 2 1 2 2 2 2 2 2 1 2 2 2 1 1 2 2 2 1 1 2 1 1 4 5 3 2 2 3 3 3
7 7 7 7 7 6 5 5 4 3 3 2 2 3 2 2 3 2 2 2 1 2 2 1 1 1 1 2 2 2 1 1 2 2 1 0 3 4 3 2 2 3 3
7 7 8 7 8 7 5 4 3 3 3 2 2 3 3 2 2 1 2 2 2 1 1 1 0 1 1 1 1 1 1 1 1 1 1 1 1 1 3 3 1 2 3
7 7 8 8 8 8 7 5 4 3 2 2 2 2 3 3 2 2 1 2 1 1 1 1 1 0 1 1 1 1 1 1 1 1 2 2 2 2 1 4 3 1 2
7 7 8 8 8 7 6 5 4 4 3 2 2 2 2 2 3 2 2 2 1 1 1 1 1 0 0 0 1 1 0 1 1 1 1 1 1 2 2 2 1 3 3
7 7 8 9 8 7 6 6 5 5 4 3 3 3 2 2 3 2 2 3 1 1 1 1 1 2 1 0 2 1 2 1 1 1 1 2 2 2 2 2 2 2 2
7 7 8 8 8 8 6 5 4 4 4 3 2 3 2 2 3 3 2 2 2 1 1 1 1 1 0 1 3 2 1 3 2 1 0 1 2 2 2 2 2 2 2
7 7 6 7 7 7 7 6 5 4 4 4 3 3 2 3 3 2 2 1 1 2 2 1 1 2 1 1 1 3 3 1 0 2 0 1 1 2 2 2 2 2 2
6 7 6 6 7 7 7 7 7 6 5 4 3 3 3 3 3 3 2 2 1 1 1 2 1 2 2 1 1 1 3 3 3 1 1 0 1 1 2 2 2 2 2
5 5 6 6 6 7 7 7 7 6 5 4 4 4 3 3 3 3 3 2 2 1 1 0 0 2 2 2 1 1 1 2 3 3 2 1 1 1 1 1 1 1 1
5 5 5 6 6 6 7 7 7 6 5 5 5 5 4 4 3 3 3 2 2 1 2 1 1 2 1 2 2 2 2 2 2 2 2 2 2 1 1 1 1 1 1
Wind_Direction
134 124 127 132 124 119 115 110 108 110 112 113 112 111 107 105 106 108 109 109 112 116 121 128 128 127 127 125 126 123 119 116 116 119 117 121 126 129 131 137 152 132 123
128 125 129 129 125 122 118 114 111 110 112 114 110 105 102 104 105 107 108 108 112 117 121 122 122 125 125 126 125 124 121 122 123 124 128 133 131 132 133 128 103 107 126
128 127 136 128 127 125 120 117 113 110 112 113 111 107 103 98 96 101 103 102 107 112 119 123 123 122 121 123 123 121 121 120 122 133 158 143 124 126 127 124 118 123 129
127 131 129 127 130 126 122 119 117 114 112 111 112 111 110 103 97 98 100 98 102 110 115 121 123 122 120 121 120 119 120 124 133 165 159 118 119 120 127 130 129 130 132
130 127 119 132 131 128 124 122 119 116 114 114 113 108 105 103 99 97 98 96 99 106 112 117 117 117 116 118 118 121 123 128 152 181 123 117 113 121 132 138 138 136 138
131 126 123 134 132 129 127 123 118 116 115 115 114 110 105 102 99 100 97 95 96 101 110 113 112 113 112 115 118 123 130 145 190 146 135 130 120 126 139 145 146 146 147
131 127 125 129 129 129 127 122 118 113 110 114 116 114 107 102 98 101 98 94 95 104 108 111 110 110 114 116 120 121 126 166 198 133 131 127 109 124 143 154 155 154 154
132 129 127 134 133 130 126 120 115 110 109 110 110 112 108 105 101 100 99 94 94 96 97 103 105 107 107 109 114 120 134 233 171 136 122 113 107 129 147 155 163 165 166
136 136 139 143 144 140 126 120 118 112 108 106 106 110 111 109 106 102 100 99 100 100 98 103 107 109 108 109 112 119 135 242 246 136 131 108 114 135 156 164 173 175 173
143 140 142 144 144 150 140 128 124 115 111 110 111 112 118 129 133 131 129 106 105 105 100 103 104 106 108 111 116 129 184 229 188 138 118 106 117 138 161 173 182 184 186
145 144 146 143 144 149 137 131 140 135 131 147 143 143 177 163 143 146 95 97 103 105 102 100 104 115 133 136 140 181 223 217 112 102 93 100 127 151 167 181 190 192 195
154 151 150 147 148 146 132 136 147 149 143 158 128 145 154 111 106 101 109 114 112 114 123 124 151 183 203 148 156 200 209 125 115 121 104 115 142 170 186 200 202 199 201
156 155 155 151 152 150 140 143 143 142 137 146 128 134 109 128 137 137 133 142 142 155 145 149 184 170 89 64 50 89 45 51 82 87 104 123 148 184 202 207 206 208 209
163 164 161 160 161 159 143 145 151 153 139 130 129 161 143 138 120 110 119 110 131 112 98 96 79 74 67 64 57 64 75 58 78 85 109 123 141 184 207 206 212 217 215
170 167 164 167 159 157 151 161 150 148 140 132 128 128 147 147 138 119 102 90 91 97 128 98 76 72 74 89 56 60 56 42 31 51 114 125 144 170 201 215 223 223 222
176 174 165 173 165 164 161 162 156 156 148 140 125 116 145 131 117 126 130 117 105 92 65 65 89 94 66 59 58 49 32 35 38 24 98 138 149 163 208 228 237 238 237
178 177 173 173 168 169 168 170 164 161 158 148 128 132 142 139 125 135 125 138 115 106 112 114 102 109 125 106 78 54 39 18 27 8 349 8 147 162 187 220 241 245 250
179 178 178 174 169 169 171 173 170 168 159 154 143 138 135 130 135 155 133 123 121 142 148 132 157 115 86 75 73 39 41 52 30 7 352 0 348 131 159 172 227 250 252
177 179 180 178 174 171 168 169 173 162 166 162 152 149 141 147 149 162 126 102 161 156 164 185 94 359 84 68 110 127 34 34 23 21 16 23 24 352 359 139 162 206 234
172 178 180 179 176 173 171 171 175 167 169 170 153 143 148 152 158 174 146 137 182 159 151 100 112 61 332 326 301 60 13 26 1 39 8 35 26 352 339 352 184 161 174
172 174 181 183 175 178 180 181 179 177 173 165 157 145 153 166 165 186 162 151 194 148 184 197 199 174 198 230 250 220 178 165 76 52 13 359 9 351 341 345 339 341 161
177 179 181 184 180 185 181 183 182 180 172 162 158 141 164 171 182 175 178 172 162 157 168 200 231 264 227 285 289 276 235 180 184 114 87 66 358 342 350 356 356 351 323
184 183 185 187 183 187 182 180 174 174 179 171 172 165 176 173 168 173 174 186 183 193 157 210 230 259 275 240 314 309 302 310 271 152 107 29 354 346 348 358 358 8 347
189 182 181 181 184 184 187 189 186 184 183 180 179 167 169 172 171 168 175 174 209 215 169 209 189 267 269 269 199 305 326 334 303 279 204 105 4 344 357 341 6 27 10
183 182 176 175 181 184 191 189 194 195 186 177 176 165 178 167 179 171 171 177 188 205 172 206 195 269 266 287 287 262 258 249 263 281 295 303 280 332 353 337 2 10 21
172 172 170 172 178 182 189 191 195 194 193 183 181 177 188 177 174 171 177 182 194 183 175 196 235 219 277 299 296 294 284 292 290 289 284 287 303 327 341 341 316 337 346